Terminal Aerodrome Forecast
Issued by NWS

Current Version | Previous Version | Text Only | Print | Product List | Glossary On
Versions: 1 2 3 4 5 6 7 8 9 10 11 12 13 14 15 16 17 18 19 20 21 22 23 24 25 26 27 28 29
000
FTUS46 KLOX 200600 AAA
TAFPRB
TAF AMD
KPRB 200635Z 2007/2106 VRB03KT P6SM VCSH BKN015 OVC040
     FM201200 VRB03KT 2SM BR BKN004
     FM201600 VRB03KT 5SM BR BKN010
     FM202000 33008KT P6SM BKN025
     FM210300 05006KT P6SM BKN040=

USA.gov is the U.S. government's official web portal to all federal, state and local government web resources and services.